CDT,Max TemperatureF,Mean TemperatureF,Min TemperatureF,Max Dew PointF,MeanDew PointF,Min DewpointF,Max Humidity, Mean Humidity, Min Humidity, Max Sea Level PressureIn, Mean Sea Level PressureIn, Min Sea Level PressureIn, Max VisibilityMiles, Mean VisibilityMiles, Min VisibilityMiles, Max Wind SpeedMPH, Mean Wind SpeedMPH, Max Gust SpeedMPH,PrecipitationIn, CloudCover, Events, WindDirDegrees
2013-6-1,60,56,51,54,48,43,88,74,63,30.02,29.75,29.52,10,10,10,29,15,37,0.00,8,,322
2013-6-2,66,57,48,45,39,36,82,53,32,30.11,30.05,30.00,10,10,10,16,10,20,0.00,3,,356
2013-6-3,71,58,44,45,41,36,76,51,33,30.03,29.96,29.84,10,10,10,25,6,36,0.00,2,,142
2013-6-4,64,60,57,57,53,45,88,74,52,29.99,29.94,29.84,10,10,10,21,13,26,0.09,7,,161
2013-6-5,66,58,51,55,47,45,88,64,49,30.00,29.97,29.94,10,10,10,17,9,22,0.00,5,,302
2013-6-6,60,56,53,52,48,46,88,72,59,30.04,30.01,29.97,10,10,10,13,8,,0.00,8,,29
2013-6-7,69,56,44,48,46,39,87,65,43,30.06,29.98,29.89,10,10,7,14,4,,0.00,3,,111
2013-6-8,60,56,53,55,51,45,88,77,59,29.89,29.83,29.78,10,10,6,25,12,30,0.60,6,,141
2013-6-9,69,63,57,61,56,54,94,86,68,29.84,29.72,29.65,10,6,2,22,16,31,0.85,8,,66
2013-6-10,77,66,55,61,56,52,94,76,50,29.89,29.83,29.79,10,7,0,10,6,,0.00,4,,173
2013-6-11,80,70,59,64,60,55,88,72,53,29.91,29.85,29.80,10,9,3,18,5,22,0.00,0,,50
2013-6-12,68,62,57,59,55,52,88,74,60,30.03,29.88,29.76,10,10,9,25,11,36,0.12,5,Thunderstorm,19
2013-6-13,77,65,53,55,52,46,82,62,44,30.13,30.08,30.02,10,10,10,12,8,,0.00,0,,21
2013-6-14,84,73,62,63,59,54,78,65,48,30.06,29.90,29.80,10,10,8,29,11,37,0.01,3,Thunderstorm,147
2013-6-15,80,72,64,63,55,46,88,58,30,29.95,29.90,29.84,10,10,10,14,8,18,0.00,0,,272
2013-6-16,84,70,57,52,48,45,67,42,25,29.97,29.93,29.88,10,10,4,22,9,26,0.00,0,,270
2013-6-17,78,69,60,54,52,48,72,50,34,30.00,29.97,29.93,10,10,5,21,12,28,0.00,1,,305
2013-6-18,78,66,55,55,53,48,82,59,42,30.09,30.03,29.98,10,10,7,12,7,16,0.00,1,,80
2013-6-19,87,74,60,61,56,52,77,52,31,30.01,29.94,29.87,10,10,10,20,10,26,0.00,1,,172
2013-6-20,89,79,69,68,64,61,73,58,45,29.94,29.87,29.77,10,10,5,24,14,31,0.02,2,Thunderstorm,170
2013-6-21,80,71,62,70,63,59,88,77,65,29.94,29.86,29.74,10,9,2,44,15,53,2.05,3,Thunderstorm,104
2013-6-22,80,72,64,68,63,59,88,74,58,30.03,29.87,29.75,10,10,5,23,11,29,0.44,4,Thunderstorm,131
2013-6-23,80,72,64,66,60,55,88,70,44,29.90,29.79,29.67,10,10,5,22,10,32,0.81,2,Thunderstorm,251
2013-6-24,78,70,62,68,63,55,88,76,61,29.91,29.83,29.76,10,10,10,17,5,,0.00,0,,160
2013-6-25,89,78,66,72,68,63,94,75,46,29.79,29.72,29.67,10,9,0,18,7,,0.00,2,,138
2013-6-26,87,78,69,70,64,55,88,62,33,29.86,29.76,29.64,10,10,9,22,6,32,0.00,1,,315
2013-6-27,86,78,69,64,57,52,78,51,35,29.93,29.89,29.84,10,10,3,25,10,32,0.00,0,,303
2013-6-28,80,73,66,55,54,52,68,51,39,29.93,29.90,29.88,10,10,6,30,15,37,0.00,1,,322
2013-6-29,78,70,62,57,54,48,77,59,36,30.01,29.93,29.86,10,10,5,22,14,29,0.00,2,,360
2013-6-30,78,66,55,54,49,46,82,54,32,30.16,30.11,30.02,10,10,7,14,5,17,0.00,0,,11